Regional Weather Roundup
Issued by NWS Northern Indiana

Home | Current Version | Previous Version | Graphics & Text | Print | Product List | Glossary On
Versions: 1 2 3 4 5 6 7 8 9 10 11 12 13 14 15 16 17 18 19 20 21 22 23 24 25 26 27 28 29 30 31 32 33 34 35 36 37 38 39 40 41 42 43 44 45 46 47 48 49 50
000
ASUS43 KIWX 221100
RWRIWX

KIWX WEATHER ROUNDUP
NATIONAL WEATHER SERVICE NORTHERN INDIANA
700 AM EDT TUE JUL 22 2014

NOTE: "FAIR" INDICATES FEW OR NO CLOUDS BELOW 12,000 FEET WITH NO
SIGNIFICANT WEATHER AND/OR OBSTRUCTIONS TO VISIBILITY.

* THESE STATIONS ARE NOT UNDER NWS QUALITY CONTROL. THEY ALSO MAY NOT
  REPORT WEATHER SUCH AS PRECIPITATION OR FOG.

INZ001>027-221200-
NORTHERN INDIANA

CITY           SKY/WX    TMP DP  RH WIND       PRES   REMARKS
GARY*          CLEAR     70  64  83 S6        30.07S
VALPARAISO     CLEAR     64  62  93 CALM      30.09R FOG
SOUTH BEND     CLEAR     69  62  78 S5        30.10R
ELKHART*       CLEAR     64  63  94 CALM      30.09  FOG
GOSHEN         CLEAR     64  61  90 SE3       30.10S
ANGOLA*        CLEAR     63  61  94 CALM      30.12R
FORT WAYNE     CLEAR     63  60  90 CALM      30.12S
PERU/GRISSOM   CLEAR     64  64 100 S2        30.11S

$$
INZ028>050-221200-
CENTRAL INDIANA

CITY           SKY/WX    TMP DP  RH WIND       PRES   REMARKS
LAFAYETTE      CLEAR     63  62  97 CALM      30.10S FOG
KOKOMO*        CLEAR     61  61 100 S5        30.11F
MUNCIE*        PTCLDY    64  60  87 CALM      30.13S
INDIANAPOLIS   CLEAR     69  63  81 CALM      30.11S FOG

$$
MIZ043>046-050>051-056>058-064>065-071>073-077>080-221200-
SOUTHWEST LOWER MICHIGAN

CITY           SKY/WX    TMP DP  RH WIND       PRES   REMARKS
BATTLE CREEK   CLEAR     66  62  87 S6        30.10S
BENTON HARBOR  CLEAR     65  63  93 S5        30.08R FOG
COLDWATER*     CLEAR     67  63  87 CALM      30.11S
HILLSDALE*     CLEAR     64  64 100 S3        30.12S FOG
HOLLAND        CLEAR     65  63  93 SE5       30.08R FOG
GRAND RAPIDS   PTCLDY    66  64  93 S7        30.09R FOG
KALAMAZOO      CLEAR     67  63  87 S3        30.10R
STURGIS*       CLEAR     64  63  94 SE3       30.10S
THREE RIVERS*  FAIR      64  64  99 CALM      30.10S FOG

$$
OHZ001>008-015>018-024>025-221200-
NORTHWEST OHIO

CITY           SKY/WX    TMP DP  RH WIND       PRES   REMARKS
DEFIANCE       FOG       62  59  90 CALM      30.12R VSB 1/2
FINDLAY        CLEAR     66  62  87 SE3       30.12R FOG
TOLEDO EXPRESS CLEAR     61  60  97 CALM      30.11S FOG
TOLEDO METCALF CLEAR     65  58  78 S3        30.12S
LIMA           CLEAR     66  63  90 S3        30.13R FOG

$$
&&



USA.gov is the U.S. government's official web portal to all federal, state and local government web resources and services.